sat.trackr.live / text

‹ back to catalog

STARLINK-35601

NORAD 66149 · 2025-240D

PAYLOAD ACTIVE UNKNOWN

§ Identity

Operator
Country
US
Launch date
2025-10-25
Launch site
AFWTR
Launch vehicle
Mass (kg)
RCS (m²)

Purposes: comms

External: N2YO · Heavens-Above · Gunter

§ Orbital elements

Epoch: 2026-09-20T15:49:08.965056Z

Period
93.85 min
Inclination
53.1596°
Eccentricity
0.0000656
Mean motion
15.34407719 rev/d
Perigee alt
462.2 km
Apogee alt
463.1 km
Semi-major
6,840.8 km
B*
5.3484e-4
RAAN
234.7571°
Arg perigee
86.0660°
Mean anomaly
274.0417°
Rev number
5,187

§ Raw data

STARLINK-356011 66149U 25240D   26263.65913154  .00017742  00000+0  53484-3 0  99992 66149  53.1596 234.7571 0000656  86.0660 274.0417 15.34407719 51876

JSON: /api/v1/satellites/66149 · /tle

For live sub-satellite position, see the globe view (requires WebGL).

§ Visibility from observer

Set your observer location to see the next 7 days of passes ≥ 10°. The values pass through the URL so the page stays shareable.

No JS? Fill the form by hand. The geolocation button needs JavaScript.